Terminal Aerodrome Forecast
Issued by NWS Pittsburgh, PA

Home | Current Version | Previous Version | Text Only | Print | Product List | Glossary On
Versions: 1 2 3 4 5 6 7 8 9 10 11 12 13 14 15 16 17 18 19 20 21 22 23 24 25 26 27
000
FTUS41 KPBZ 040039 AAA
TAFPIT
TAF AMD
KPIT 040039Z 0401/0506 07005KT 6SM -SHRA BR OVC035
      TEMPO 0401/0403 2SM SHRA BKN025
     FM040300 03005KT 4SM -SHRA BKN015
     FM041000 VRB05KT 6SM -SHRA BR OVC010
     FM041500 32008KT P6SM BKN020
     FM041700 33008KT P6SM SCT025=

USA.gov is the U.S. government's official web portal to all federal, state and local government web resources and services.